ROMMA est une association bénévole à but non lucratif. Votre soutien est indispensable : ADHERER à ROMMA ou FAIRE un DON

Granges-lès-Beaumont - (26, Drôme)

Drôme des Collines (155 m)   Longitude: 04°58'E   Latitude: 45°03'N Station partenaire n°123
 

Détail journalier du     <<     >>

Température Precipitation Humidité Pression Vent Dir Rafale Dir. rafale Ensol.
Heure (°C) (mm) (%) (hPa) (km/h) (km/h) (min)
01:00 9.207710109NNO13NNO0
02:00 9.007910109NNO15NNO0
03:00 9.1079101010NNO16NNO0
04:00 9.407710107N18N0
05:00 8.707810093N13ENE0
06:00 7.408110094NE15ENE0
07:00 7.108410104NE10NE0
08:00 8.208510103NE10E0
09:00 11.507610108ENE24NNO0
10:00 12.9069101011N24N0
11:00 15.1064100916N31NNE20
12:00 13.80.270100915N32NNO20
13:00 14.50.268100911NNO26NNE0
14:00 16.8054100813NNO26NNO10
15:00 17.1058100816N35NNE30
16:00 16.9049100812NNE27N40
17:00 15.3053100811NO23NO0
18:00 15.005710079N19ONO0
19:00 13.006410077N32ONO0
20:00 10.9065100814NO60ONO0
21:00 6.9074101124NNO47N0
22:00 4.90.283101321NNO48NNO0
23:00 4.7079101316NNO40NO0
minuit 4.5080101318NNO40NNO0

Graphique du 04-05-2019

 

Serveur OMMA